Weather History for Hayward, WI

Change the Weather History Date:

Thursday, February 21, 2013

  Actual Average Record
Temperature  
Mean Temperature 7 °F -  
Max Temperature 28 °F 31 °F 52 °F (2007)
Min Temperature -14 °F -2 °F -24 °F (2001)
Degree Days  
Heating Degree Days 58    
Moisture  
Dew Point 4 °F    
Average Humidity 72    
Maximum Humidity 84    
Minimum Humidity 47    
Precipitation  
Precipitation 0.00 in - - ()
Sea Level Pressure  
Sea Level Pressure 30.39 in    
Wind  
Wind Speed 4 mph (ENE)    
Max Wind Speed 13 mph    
Max Gust Speed 18 mph    
Visibility 10 miles    
Events      
Averages and records for this station are not official NWS values.
T = Trace of Precipitation, MM = Missing Value Source: NWS Daily Summary

Daily Weather History Graph

Daily Weather History Graph

Search for Another Location

Airport:

Trip Planner

Search our weather history database for the weather conditions in past years. The results will help you decide how hot, cold, wet, or windy it might be!

Date:

Astronomy

Feb. 21, 2013 Rise Set
Actual Time 6:58 AM CST 5:41 PM CST
Civil Twilight 6:27 AM CST 6:11 PM CST
Nautical Twilight 5:53 AM CST 6:46 PM CST
Astronomical Twilight 5:18 AM CST 7:20 PM CST
Moon 1:47 PM CST (2/21) 4:11 AM CST (2/21)
Length of Visible Light 11h 43m
Length of Day
10h 43m
Waxing Gibbous, 84% of the Moon is Illuminated
Feb 21
Waxing Gibbous
Feb 25
Full
Mar 4
Last Quarter
Mar 11
New
Mar 19
First Quarter

Hourly Weather History & Observations

Time (CST) Temp. Windchill Dew Point Humidity Pressure Visibility Wind Dir Wind Speed Gust Speed Precip Events Conditions
12:53 AM -7.1 °F - -11.9 °F 79% 30.51 in 10.0 mi Calm Calm - N/A   Clear
1:53 AM -8.0 °F - -15.0 °F 71% 30.51 in 10.0 mi Calm Calm - N/A   Clear
2:53 AM -9.0 °F - -15.0 °F 75% 30.51 in 10.0 mi Calm Calm - N/A   Clear
3:53 AM -8.0 °F -22.5 °F -13.0 °F 79% 30.51 in 10.0 mi NNE 6.9 mph - N/A   Clear
5:53 AM -11.9 °F - -18.0 °F 74% 30.54 in 10.0 mi Calm Calm - N/A   Clear
6:53 AM -14.1 °F - -20.0 °F 75% 30.50 in 10.0 mi Calm Calm - N/A   Clear
7:27 AM -2.2 °F -15.6 °F -7.6 °F 78% 30.34 in 10.0 mi NNE 6.9 mph - N/A   Mostly Cloudy
7:53 AM 3.9 °F -6.9 °F -0.9 °F 80% 30.43 in 10.0 mi NE 5.8 mph - N/A   Overcast
8:30 AM 8.6 °F -2.6 °F 3.2 °F 79% 30.43 in 2.5 mi SE 6.9 mph - N/A   Haze
8:53 AM 10.0 °F - 6.1 °F 84% 30.54 in 5.0 mi Calm Calm - 0.00 in   Overcast
9:44 AM 12.2 °F 2.9 °F 6.8 °F 79% 30.42 in 10.0 mi East 5.8 mph - N/A   Scattered Clouds
9:53 AM 12.9 °F 3.8 °F 7.0 °F 77% 30.51 in 10.0 mi ENE 5.8 mph - N/A   Partly Cloudy
10:53 AM 18.0 °F 9.8 °F 8.1 °F 65% 30.47 in 10.0 mi Variable 5.8 mph - N/A   Clear
11:53 AM 21.0 °F 14.6 °F 9.0 °F 60% 30.48 in 10.0 mi SE 4.6 mph - N/A   Clear
12:53 PM 23.0 °F 15.8 °F 10.0 °F 58% 30.44 in 10.0 mi ESE 5.8 mph - N/A   Clear
1:53 PM 27.0 °F 20.5 °F 10.0 °F 49% 30.40 in 10.0 mi ENE 5.8 mph - N/A   Clear
2:53 PM 28.9 °F 21.9 °F 10.9 °F 47% 30.36 in 10.0 mi NE 6.9 mph - N/A   Clear
3:53 PM 28.0 °F 22.8 °F 12.0 °F 51% 30.37 in 10.0 mi ENE 4.6 mph - N/A   Clear
4:53 PM 24.1 °F 17.0 °F 12.0 °F 60% 30.37 in 10.0 mi Variable 5.8 mph - N/A   Clear
5:53 PM 21.0 °F 10.6 °F 12.9 °F 71% 30.37 in 10.0 mi NNE 9.2 mph - N/A   Clear
6:53 PM 19.9 °F 11.1 °F 12.9 °F 74% 30.33 in 10.0 mi NE 6.9 mph - N/A   Clear
7:53 PM 19.9 °F 11.1 °F 14.0 °F 78% 30.30 in 10.0 mi NE 6.9 mph - N/A   Partly Cloudy
9:53 PM 19.9 °F 8.6 °F 14.0 °F 78% 30.24 in 10.0 mi ENE 10.4 mph - N/A   Clear
10:19 PM 19.4 °F 6.6 °F 14.0 °F 80% 30.14 in 10.0 mi NE 12.7 mph - N/A   Mostly Cloudy
10:39 PM 19.4 °F 9.5 °F 12.2 °F 74% 30.14 in 10.0 mi ENE 8.1 mph 18.4 mph N/A   Overcast
10:53 PM 19.0 °F 6.8 °F 12.9 °F 77% 30.22 in 10.0 mi ENE 11.5 mph - N/A   Overcast
11:53 PM 19.0 °F 9.0 °F 14.0 °F 81% 30.19 in 10.0 mi NE 8.1 mph - N/A   Overcast